DW8947 Weather Reports


time (UTC)temp
C
wind
direction
speed
KPH
gust
KPH
rain 1hr
cm
rain 24hr
cm
rain mn
cm
humidity
%
barometer
mb
20260508062205 11 84 0.0 0.0 0.00 0.00 0.00 83 1015.0
20260508061204 11 84 0.0 0.0 0.00 0.00 0.00 84 1015.0
20260508060704 11 84 0.0 0.0 0.00 0.00 0.00 83 1015.1
20260508060204 11 84 0.0 0.0 0.00 0.00 0.00 83 1015.2
20260508054205 11 156 0.0 1.6 0.00 0.00 0.00 82 1015.2
20260508053204 12 94 0.0 3.2 0.00 0.00 0.00 82 1015.2
20260508052704 12 94 0.0 3.2 0.00 0.00 0.00 81 1015.2
20260508051704 12 94 0.0 1.6 0.00 0.00 0.00 80 1015.1
20260508051204 12 94 0.0 1.6 0.00 0.00 0.00 80 1015.2
20260508050704 12 94 0.0 1.6 0.00 0.00 0.00 79 1015.2
20260508045704 12 94 0.0 3.2 0.00 0.00 0.00 78 1015.2
20260508045204 12 94 0.0 3.2 0.00 0.00 0.00 78 1015.2
20260508044704 12 94 0.0 3.2 0.00 0.00 0.00 77 1015.2
20260508044204 12 94 0.0 3.2 0.00 0.00 0.00 77 1015.3
20260508043204 12 94 0.0 3.2 0.00 0.00 0.00 76 1015.3
20260508042704 12 94 0.0 3.2 0.00 0.00 0.00 77 1015.2
20260508035204 13 94 0.0 0.0 0.00 0.00 0.00 75 1015.3
20260508034705 13 94 0.0 0.0 0.00 0.00 0.00 75 1015.1
20260508034204 13 94 0.0 0.0 0.00 0.00 0.00 75 1015.1
20260508033204 13 94 0.0 0.0 0.00 0.00 0.00 75 1015.1
20260508032704 13 94 0.0 0.0 0.00 0.00 0.00 75 1015.2
20260508031705 13 94 0.0 0.0 0.00 0.00 0.00 74 1015.2
20260508030704 14 94 0.0 0.0 0.00 0.00 0.00 74 1015.2
20260508025705 14 94 0.0 0.0 0.00 0.00 0.00 74 1015.2
20260508024204 14 94 0.0 0.0 0.00 0.00 0.00 74 1015.4
20260508023204 15 94 0.0 0.0 0.00 0.00 0.00 73 1015.4
20260508022704 15 94 0.0 0.0 0.00 0.00 0.00 72 1015.4
20260508022204 15 94 0.0 0.0 0.00 0.00 0.00 71 1015.4
20260508021204 15 94 0.0 0.0 0.00 0.00 0.00 70 1015.4
20260508020704 15 94 0.0 0.0 0.00 0.00 0.00 70 1015.5
20260508015704 16 94 0.0 0.0 0.00 0.00 0.00 69 1015.5
20260508015204 16 95 0.0 1.6 0.00 0.00 0.00 67 1015.5
20260508013705 16 132 0.0 3.2 0.00 0.00 0.00 68 1015.6
20260508011704 16 90 0.0 3.2 0.00 0.00 0.00 67 1015.8
20260508010204 16 214 0.0 3.2 0.00 0.00 0.00 66 1015.9
20260508005205 16 200 0.0 1.6 0.00 0.00 0.00 62 1016.0
20260508004704 16 200 0.0 3.2 0.00 0.00 0.00 63 1016.1
20260508000704 17 0 0.0 3.2 0.00 0.00 0.00 64 1016.2
20260508000205 17 0 0.0 3.2 0.00 0.00 0.00 63 1016.2
20260507235704 17 0 1.6 1.6 0.00 0.00 0.00 65 1016.2
20260507235204 17 0 0.0 3.2 0.00 0.00 0.00 63 1016.2
20260507234704 17 0 0.0 3.2 0.00 0.00 0.00 65 1016.3
20260507233704 17 59 0.0 3.2 0.00 0.00 0.00 64 1016.3
20260507233204 17 59 0.0 3.2 0.00 0.00 0.00 63 1016.4
20260507230204 17 79 0.0 3.2 0.00 0.00 0.00 63 1016.6
20260507225204 17 46 0.0 3.2 0.00 0.00 0.00 61 1016.8
20260507224204 17 87 1.6 3.2 0.00 0.00 0.00 60 1016.9
20260507223705 17 241 0.0 3.2 0.00 0.00 0.00 59 1016.9
20260507222704 17 204 0.0 3.2 0.00 0.00 0.00 59 1017.0
20260507221203 17 20 1.6 3.2 0.00 0.00 0.00 60 1017.1
20260507220704 17 199 0.0 3.2 0.00 0.00 0.00 60 1017.2
20260507214704 16 69 0.0 3.2 0.00 0.00 0.00 69 1017.4
20260507214204 16 69 0.0 3.2 0.00 0.00 0.00 67 1017.4
20260507213704 16 63 0.0 3.2 0.00 0.00 0.00 67 1017.5
20260507212704 16 29 0.0 3.2 0.00 0.00 0.00 69 1017.6
20260507211704 17 55 1.6 3.2 0.00 0.00 0.00 66 1017.6
20260507210204 15 293 0.0 3.2 0.00 0.00 0.00 73 1017.9
20260507204704 15 300 0.0 3.2 0.00 0.00 0.00 75 1018.1
20260507202704 15 253 1.6 1.6 0.00 0.00 0.00 76 1018.3
20260507200704 15 34 0.0 3.2 0.00 0.00 0.00 77 1018.5
20260507195204 14 27 0.0 1.6 0.00 0.00 0.00 76 1018.5
20260507194704 14 15 0.0 3.2 0.00 0.00 0.00 76 1018.5
20260507194204 14 15 0.0 3.2 0.00 0.00 0.00 76 1018.5
20260507192704 14 8 0.0 1.6 0.00 0.00 0.00 76 1018.5
20260507192204 14 8 0.0 3.2 0.00 0.00 0.00 75 1018.6
20260507190704 14 53 0.0 3.2 0.00 0.00 0.00 77 1018.6
20260507185704 14 104 0.0 1.6 0.00 0.00 0.00 78 1018.7
20260507185204 13 104 0.0 3.2 0.00 0.00 0.00 76 1018.7
20260507184704 13 111 0.0 3.2 0.00 0.00 0.00 76 1018.8
20260507184204 13 111 0.0 3.2 0.00 0.00 0.00 77 1018.8
20260507183704 13 111 0.0 3.2 0.00 0.00 0.00 76 1018.8
20260507181204 14 287 0.0 1.6 0.00 0.00 0.00 77 1018.9
20260507180204 14 214 0.0 3.2 0.00 0.00 0.00 76 1018.9
20260507174704 14 241 0.0 1.6 0.00 0.00 0.00 78 1018.9
20260507173704 13 171 0.0 1.6 0.00 0.00 0.00 81 1019.0
20260507172704 13 238 0.0 3.2 0.00 0.00 0.00 81 1018.9
20260507172204 13 81 0.0 4.8 0.00 0.00 0.00 81 1018.9
20260507171704 12 223 0.0 3.2 0.00 0.00 0.00 82 1019.0
20260507170703 12 11 0.0 3.2 0.00 0.00 0.00 84 1019.0
20260507170204 12 356 1.6 3.2 0.00 0.00 0.00 85 1018.9
20260507165704 12 152 0.0 3.2 0.00 0.00 0.00 85 1018.9
20260507163704 12 152 0.0 3.2 0.00 0.00 0.00 85 1019.1
20260507162204 11 152 0.0 0.0 0.00 0.00 0.00 87 1019.0
20260507160704 11 152 0.0 3.2 0.00 0.00 0.00 86 1019.1
20260507154704 12 152 0.0 3.2 0.00 0.00 0.00 85 1019.2
20260507154204 12 113 0.0 3.2 0.00 0.00 0.00 85 1019.2
20260507153705 12 94 0.0 1.6 0.00 0.00 0.00 85 1019.2
20260507152704 12 93 0.0 3.2 0.00 0.00 0.00 84 1019.2
20260507152203 12 93 0.0 0.0 0.00 0.00 0.00 84 1019.2
20260507151204 12 94 0.0 0.0 0.00 0.00 0.00 86 1019.2
20260507150704 12 94 0.0 0.0 0.00 0.00 0.00 87 1019.2
20260507150204 11 94 0.0 0.0 0.00 0.00 0.00 87 1019.2
20260507145704 11 94 0.0 0.0 0.00 0.00 0.00 88 1019.1
20260507145203 11 94 0.0 0.0 0.00 0.00 0.00 88 1019.2
20260507144204 11 94 0.0 3.2 0.00 0.00 0.00 88 1019.1
20260507143704 11 94 0.0 3.2 0.00 0.00 0.00 88 1019.1
20260507142204 11 94 0.0 0.0 0.00 0.00 0.00 89 1019.0
20260507135703 11 94 0.0 0.0 0.00 0.00 0.00 89 1019.0
20260507132204 11 94 0.0 0.0 0.00 0.00 0.00 90 1019.0
20260507131704 11 94 0.0 0.0 0.00 0.00 0.00 90 1019.0
20260507130704 11 94 0.0 0.0 0.00 0.00 0.00 90 1019.0
20260507130204 11 94 0.0 0.0 0.00 0.00 0.00 90 1019.0
20260507124704 11 94 0.0 0.0 0.00 0.00 0.00 89 1019.1
20260507124204 11 94 0.0 0.0 0.00 0.00 0.00 89 1019.1
20260507123704 11 94 0.0 0.0 0.00 0.00 0.00 89 1019.0
20260507123203 11 94 0.0 0.0 0.00 0.00 0.00 89 1019.0
20260507115704 11 94 0.0 0.0 0.00 0.00 0.00 89 1019.2
20260507115204 11 94 0.0 0.0 0.00 0.00 0.00 89 1019.2
20260507114704 11 94 0.0 0.0 0.00 0.00 0.00 89 1019.2
20260507114204 11 94 0.0 0.0 0.00 0.00 0.00 89 1019.3
20260507113704 11 94 0.0 0.0 0.00 0.00 0.00 89 1019.2
20260507113204 11 94 0.0 0.0 0.00 0.00 0.00 89 1019.3
20260507111204 11 94 0.0 3.2 0.00 0.00 0.00 89 1019.4
20260507105704 11 94 0.0 3.2 0.00 0.00 0.00 89 1019.4
20260507105204 11 94 0.0 0.0 0.00 0.00 0.00 90 1019.4
20260507104704 11 94 0.0 3.2 0.00 0.00 0.00 90 1019.3
20260507103204 11 93 0.0 3.2 0.00 0.00 0.00 90 1019.3
20260507101704 11 93 0.0 3.2 0.00 0.00 0.00 91 1019.4
20260507101204 11 93 0.0 3.2 0.00 0.00 0.00 91 1019.5
20260507100703 11 93 0.0 1.6 0.00 0.00 0.00 91 1019.5
20260507095204 11 93 0.0 3.2 0.00 0.00 0.00 91 1019.3
20260507093704 11 93 0.0 3.2 0.00 0.00 0.00 91 1019.5
20260507092704 11 93 0.0 1.6 0.00 0.00 0.00 91 1019.5
20260507092204 11 93 0.0 3.2 0.00 0.00 0.00 91 1019.5
20260507090704 11 93 0.0 0.0 0.00 0.00 0.00 91 1019.4
20260507090204 11 93 0.0 0.0 0.00 0.00 0.00 91 1019.5
20260507085204 11 93 0.0 0.0 0.00 0.00 0.00 91 1019.6
20260507082704 11 93 0.0 0.0 0.00 0.00 0.00 91 1019.5
20260507081704 11 93 0.0 0.0 0.00 0.00 0.00 91 1019.4
20260507080704 11 93 0.0 1.6 0.00 0.00 0.00 91 1019.3
20260507075704 11 94 0.0 3.2 0.00 0.00 0.00 91 1019.3
20260507074704 11 94 0.0 1.6 0.00 0.00 0.00 91 1019.3
20260507073204 11 134 0.0 3.2 0.00 0.00 0.00 91 1019.3
20260507072704 11 134 0.0 3.2 0.00 0.00 0.00 91 1019.1
20260507072204 11 134 0.0 3.2 0.00 0.00 0.00 91 1019.2
20260507071703 11 134 0.0 3.2 0.00 0.00 0.00 90 1019.2
20260507071204 11 134 0.0 3.2 0.00 0.00 0.00 90 1019.2
20260507070204 11 134 0.0 0.0 0.00 0.00 0.00 90 1019.2
20260507065704 11 134 0.0 3.2 0.00 0.00 0.00 90 1019.2
20260507065204 11 134 0.0 1.6 0.00 0.00 0.00 90 1019.2
20260507064704 11 134 0.0 3.2 0.00 0.00 0.00 90 1019.1
20260507064204 11 134 0.0 1.6 0.00 0.00 0.00 90 1019.2
20260507063204 12 134 0.0 3.2 0.00 0.00 0.00 89 1019.1